Regional Weather Roundup
Issued by NWS

Home | Current Version | Previous Version | Text Only | Print | Product List | Glossary Off
Versions: 1 2 3 4 5 6 7 8 9 10 11 12 13 14 15 16 17 18 19 20 21 22 23 24 25 26 27 28 29 30 31 32 33 34 35 36 37 38 39 40 41 42 43 44 45 46 47 48 49 50

000
ASUS45 KBOU 241010
RWRCO

WEATHER ROUNDUP FOR COLORADO
NATIONAL WEATHER SERVICE PUEBLO CO
400 AM MDT TUE APR 24 2018

NOTE: "FAIR" INDICATES FEW OR NO CLOUDS BELOW 12000 FEET WITH NO
SIGNIFICANT WEATHER AND/OR OBSTRUCTIONS TO VISIBILITY.

COZ001>005-013-030-031-241100-
...NORTHWEST COLORADO...

CITY           SKY/WX    TMP DP  RH WIND       PRES   REMARKS
CRAIG          FAIR      32  28  85 W8        30.28R WCI  25
HAYDEN         FAIR      35  29  78 W8        30.28R WCI  29
MEEKER         FAIR      37  29  72 CALM      30.25R
RABBIT EARS PA NOT AVBL
STEAMBOAT SPGS FAIR      37  31  79 CALM      30.25R
WALDEN         CLOUDY    30  23  74 NW13      30.29S WCI  20
$$

COZ006>008-011-241100-
...WEST CENTRAL VALLEYS...

CITY           SKY/WX    TMP DP  RH WIND       PRES   REMARKS
GRAND JUNCTION FAIR      57  26  30 E10       30.12S
MONTROSE       FAIR      50  36  58 N8        30.23S
EAGLE          CLOUDY    49  32  52 S5        30.22S
RIFLE          FAIR      50  31  48 NW13      30.18R
DELTA          NOT AVBL
NUCLA          FAIR      54  27  35 E10       30.21R
$$

COZ017>023-064>068-241100-
...SOUTHWEST COLORADO...

CITY           SKY/WX    TMP DP  RH WIND       PRES   REMARKS
DURANGO        FAIR      39  13  34 CALM      30.13R
CORTEZ         FAIR      40  20  44 E5        30.13R
PAGOSA SPRINGS FAIR      37  13  38 CALM      30.19S
TELLURIDE      FAIR      40  27  60 CALM      30.31R
WOLF CREEK PAS FAIR      34  10  37 SW10      30.41F WCI  26
$$

COZ009-010-012-014-032>034-037-058>063-241100-
...CENTRAL COLORADO...

CITY           SKY/WX    TMP DP  RH WIND       PRES   REMARKS
ASPEN          LGT RAIN  41  36  82 S8        30.27R
BUENA VISTA    CLOUDY    45  28  52 NW18G26   30.25R
COPPER MTN     NOT AVBL
BERTHOUD PASS  CLOUDY    23  12  63 W12G20    30.36S WCI  12
COTTONWOOD PAS FAIR      43  30  61 W8        30.30R
GUNNISON       CLOUDY    41  31  67 SW3       30.26R
KREMMLING      CLOUDY    45  34  65 N3        30.25R
LEADVILLE      LGT SNOW  32  30  92 E5        30.31S FOG     WCI  27
MONARCH PASS   FAIR      28  25  86 SW18      30.47R WCI  16
SALIDA         FAIR      45  28  51 W5        30.30R
SUNLIGHT       CLOUDY    30  27  86 S6        30.36F WCI  24
WILKERSON PASS FOG       30  30 100 N3        30.37R VSB 1/4
$$

COZ069>075-241100-
...SAN LUIS VALLEY/SANGRE DE CRISTO MOUNTAINS...

CITY           SKY/WX    TMP DP  RH WIND       PRES   REMARKS
ALAMOSA        FAIR      38  23  55 NE5       30.19R
DEL NORTE      FAIR      40  18  41 W8        30.21S
LA VETA PASS   SNOW      34  32  93 NE10G16   30.43R VSB 1/4 WCI  26
SAGUACHE       NOT AVBL
$$

COZ035-036-038>040-241100-
...NORTHERN COLORADO FRONT RANGE...

CITY           SKY/WX    TMP DP  RH WIND       PRES   REMARKS
DENVER INTL AP LGT SNOW  33  31  92 N9        30.33R FOG     WCI  25
DMNS CITY PARK NOT AVBL
AURORA         FLURRIES  34  34 100 N8        30.33R WCI  27
FRONT RANGE AP LGT SNOW  34  33  95 NE13      30.33S WCI  25
ERIE MUNI ARPT LGT SNOW  34  33  96 CALM      30.40R
BOULDER MUN AP MIX PCPN  34  34 100 SE3       30.33R
CENTENNIAL     FLURRIES  35  32  88 N9        30.33R WCI  28
BROOMFIELD     LGT SNOW  34  34 100 CALM      30.34R
LOVELAND       MIX PCPN  34  32  92 N12       30.34R WCI  25
LONGMONT       MIX PCPN  37  34  89 CALM      30.36R
$$

COZ041-046-047-076>085-087-088-241100-
...PIKES PEAK/PALMER DIVIDE AND SOUTHERN FOOTHILLS...

CITY           SKY/WX    TMP DP  RH WIND       PRES   REMARKS
COLO. SPRINGS  CLOUDY    39  31  72 NW21G32   30.26R
A. F. ACADEMY  NOT AVBL
SCHRIEVER AFB  NOT AVBL
CHEYENNE MTN   NOT AVBL
ELLICOTT         N/A    N/A N/A N/A N28G38    30.23R
FALCON         CLOUDY    33  31  94 N26G39    30.24R WCI  19
FORT CARSON    FAIR      40  31  70 N32G39    30.22R
LIMON          CLOUDY    35  33  92 N23G37    30.26S WCI  23
MONUMENT HILL  CLOUDY    30  30 100 N13G20    30.32R FOG     WCI  20
CANON CITY     FAIR      45  37  76 SE18G28   30.20R
WALSENBURG     CLOUDY    43  37  81 N12       30.27R
TRINIDAD       CLOUDY    44  38  79 NW16G25   30.24R
$$

COZ042>045-048>051-090-091-241100-
...NORTHEAST COLORADO...

CITY           SKY/WX    TMP DP  RH WIND       PRES   REMARKS
GREELEY ARPT   FLURRIES  35  32  88 N16       30.34R WCI  25
AKRON          FLURRIES  33  33 100 N21       30.29S WCI  21
BURLINGTON     CLOUDY    40  39  97 N18G32    30.25R
WRAY           LGT SNOW  37  37 100 N24G31    30.25S
YUMA           NOT AVBL
STERLING       NOT AVBL
HOLYOKE        HVY RAIN  41  36  81 N18G30    30.26R
FORT MORGAN    CLOUDY    35  32  88 N17G24    30.32R WCI  25
$$

COZ086-089-092>099-241100-
...SOUTHEAST COLORADO...

CITY           SKY/WX    TMP DP  RH WIND       PRES   REMARKS
PUEBLO         MOCLDY    47  34  60 N29G46    30.20R
LA JUNTA       FAIR      45  38  76 N32G48    30.15R
LAMAR          FAIR      53  40  61 E15       30.08R
SPRINGFIELD      N/A     48  42  80 NW10      30.10R
$$





USA.gov is the U.S. government's official web portal to all federal, state and local government web resources and services.